Location: Unspecified
(0.0000°N, 0.0000°E)
Time: 20:56:36
(UTC+02:00)

Amateur Radio Satellites - All Passes

Search period start: 27 August 2014 20:26
Search period end: 28 August 2014 20:26
Location: Unspecified, 0.0000°N, 0.0000°E

Satellite Date Start Highest point End Downlink Frequencies (MHz)
Time Altitude Azimuth
JAS-2 27 Aug 20:54:14 20:59:25 21° 254° (WSW) 21:04:16 435.800 - 435.900 CW/SSB, 435.910 FM
STRAND 1 27 Aug 21:06:10 21:10:38 31° 283° (WNW) 21:15:08 ?
PANSAT 27 Aug 22:01:49 22:05:32 48° 30° (NNE) 22:09:14 not established
RS-15 27 Aug 22:03:27 22:12:32 27° 247° (WSW) 22:21:59 29.354 - 29.394 USB, Beacon 29.352 USB
HO-68 27 Aug 22:31:42 22:38:49 67° 76° (ENE) 22:45:52 435.675 MHz FM
ISS 27 Aug 22:38:35 22:41:53 64° 235° (SW) 22:45:12 145.800 FM
Saudisat 1A 27 Aug 22:43:15 22:46:54 26° 112° (ESE) 22:50:32 436.775 MHz
UKube-1 27 Aug 23:03:47 23:08:09 82° 78° (ENE) 23:12:30 145.840 MHz, 145.915 MHz
Oscar 11 27 Aug 23:13:48 23:18:03 59° 78° (ENE) 23:22:17 145.825 FM, Beacon 2401.500 USB
FUNcube-1 27 Aug 23:30:30 23:34:02 27° 79° (ENE) 23:37:31 145.950 - 145.970 MHz USB
PANSAT 27 Aug 23:42:36 23:45:39 22° 209° (SSW) 23:48:43 not established
AO-40 27 Aug 23:48:48 01:30:39 75° 229° (SW) 08:25:27 Beacon 2401.320
KITSAT 1 28 Aug 00:12:25 00:20:32 86° 110° (ESE) 00:28:37 435.175 FM
HO-68 28 Aug 00:23:43 00:26:07 12° 254° (WSW) 00:28:31 435.675 MHz FM
Saudisat 1A 28 Aug 00:23:58 00:26:14 14° 292° (WNW) 00:28:29 436.775 MHz
Oscar 10/S400 28 Aug 00:48:28 06:06:34 76° 147° (SSE) 11:40:00 145.825 - 145.975 CW/USB, Beacon 145.810 USB
FUNcube-1 28 Aug 01:09:18 01:10:09 11° 258° (WSW) 01:11:01 145.950 - 145.970 MHz USB
Oscar 16 28 Aug 02:05:51 02:07:32 12° 103° (ESE) 02:09:13 437.025 USB, Beacon 2401.1428
MaSat-1 28 Aug 02:07:24 02:11:00 74° 72° (ENE) 02:14:04 437.345 MHz
Oscar 19 28 Aug 03:07:13 03:12:21 71° 102° (ESE) 03:17:30 437.125 CW, 437.150 USB
ITAMSAT 1 28 Aug 03:31:57 03:36:55 48° 103° (ESE) 03:41:56 435.822 SSB
Oscar 16 28 Aug 03:41:45 03:46:35 41° 282° (WNW) 03:51:27 437.025 USB, Beacon 2401.1428
Uribyol 2 28 Aug 03:42:36 03:47:47 72° 103° (ESE) 03:52:59 436.500 FM
SO-50 28 Aug 03:47:35 03:51:23 28° 112° (ESE) 03:55:11 436.795 FM
AO-27 28 Aug 03:59:51 04:05:01 75° 283° (WNW) 04:10:13 436.795 MHz FM
AO-Echo 28 Aug 04:01:24 04:06:03 61° 282° (WNW) 04:10:50 ?
Gurwin Techsat 1B 28 Aug 04:08:59 04:14:04 48° 103° (ESE) 04:19:09 435.225 FM
JAS-1B 28 Aug 04:22:58 04:28:46 63° 283° (WNW) 04:34:22 435.800 - 435.900 CW/SSB
PCSat 28 Aug 04:37:14 04:40:26 16° 70° (ENE) 04:43:37 145.825 MHz
Uosat F 28 Aug 04:52:32 04:53:55 11° 103° (ESE) 04:55:17 435.120 FM
TMSAT-1 28 Aug 05:02:36 05:07:46 57° 282° (WNW) 05:12:58 436.925 FM
AO-7 28 Aug 05:22:30 05:30:09 42° 106° (ESE) 05:37:48 29.400 - 29.500 MHz
SO-50 28 Aug 05:29:53 05:31:41 12° 293° (WNW) 05:33:28 436.795 FM
Sapphire 28 Aug 05:48:22 05:53:47 83° 251° (WSW) 05:59:11 437.095 MHz 1200 baud AX-25 AFSK
Gurwin Techsat 1B 28 Aug 05:53:17 05:53:44 10° 283° (WNW) 05:54:12 435.225 FM
UOSAT-12 28 Aug 06:04:50 06:09:16 70° 112° (ESE) 06:13:46 437.025 FM, 437.400 FM
PCSat 28 Aug 06:18:46 06:23:34 33° 251° (WSW) 06:28:24 145.825 MHz
OPAL 28 Aug 06:21:06 06:26:00 61° 256° (WSW) 06:30:55 ?
Uosat F 28 Aug 06:27:45 06:32:24 40° 283° (WNW) 06:37:05 435.120 FM
JAS-2 28 Aug 06:41:38 06:45:30 18° 106° (ESE) 06:49:38 435.800 - 435.900 CW/SSB, 435.910 FM
AO-7 28 Aug 07:16:08 07:22:33 26° 286° (WNW) 07:29:02 29.400 - 29.500 MHz
RS-15 28 Aug 07:32:39 07:43:36 47° 111° (ESE) 07:54:01 29.354 - 29.394 USB, Beacon 29.352 USB
STRAND 1 28 Aug 07:59:51 08:04:35 38° 77° (ENE) 08:09:18 ?
SO-67 28 Aug 08:02:17 08:03:55 13° 101° (E) 08:05:32 435.3500 MHz FM
Hamsat 28 Aug 08:05:38 08:09:29 33° 282° (WNW) 08:13:21 145.90 MHz
JAS-2 28 Aug 08:25:05 08:30:09 35° 281° (W) 08:35:49 435.800 - 435.900 CW/SSB, 435.910 FM
SO-67 28 Aug 09:34:49 09:36:42 14° 281° (W) 09:38:35 435.3500 MHz FM
STRAND 1 28 Aug 09:41:28 09:43:29 12° 257° (WSW) 09:45:29 ?
RS-15 28 Aug 09:46:02 09:55:28 30° 291° (WNW) 10:04:41 29.354 - 29.394 USB, Beacon 29.352 USB
PANSAT 28 Aug 09:49:15 09:53:02 51° 150° (SSE) 09:56:48 not established
ISS 28 Aug 10:14:28 10:17:48 77° 125° (SE) 10:21:06 145.800 FM
HO-68 28 Aug 10:23:19 10:30:17 56° 105° (ESE) 10:37:16 435.675 MHz FM
KITSAT 1 28 Aug 10:30:42 10:33:19 12° 68° (ENE) 10:35:55 435.175 FM
Saudisat 1A 28 Aug 10:48:56 10:53:01 39° 68° (ENE) 10:57:07 436.775 MHz
UKube-1 28 Aug 11:13:33 11:17:51 73° 282° (WNW) 11:22:12 145.840 MHz, 145.915 MHz
Oscar 11 28 Aug 11:22:53 11:27:14 82° 102° (ESE) 11:31:35 145.825 FM, Beacon 2401.500 USB
PANSAT 28 Aug 11:30:09 11:33:10 22° 331° (NNW) 11:36:11 not established
FUNcube-1 28 Aug 11:40:20 11:44:41 42° 102° (ESE) 11:49:03 145.950 - 145.970 MHz USB
HO-68 28 Aug 12:13:53 12:17:38 15° 285° (WNW) 12:21:24 435.675 MHz FM
KITSAT 1 28 Aug 12:20:28 12:28:29 75° 250° (WSW) 12:36:32 435.175 FM
MaSat-1 28 Aug 13:56:19 14:00:14 69° 106° (ESE) 14:04:47 437.345 MHz
Oscar 19 28 Aug 14:06:10 14:07:07 11° 77° (ENE) 14:08:05 437.125 CW, 437.150 USB
Oscar 16 28 Aug 14:36:58 14:41:26 30° 77° (ENE) 14:45:53 437.025 USB, Beacon 2401.1428
JAS-1B 28 Aug 14:40:50 14:47:42 22° 75° (ENE) 14:54:34 435.800 - 435.900 CW/SSB
Uribyol 2 28 Aug 14:42:11 14:43:40 11° 77° (ENE) 14:45:08 436.500 FM
AO-Echo 28 Aug 14:53:38 14:57:13 19° 78° (ENE) 15:00:44 ?
AO-27 28 Aug 14:57:41 15:01:10 18° 77° (ENE) 15:04:37 436.795 MHz FM
Oscar 19 28 Aug 15:41:19 15:46:10 44° 258° (WSW) 15:51:02 437.125 CW, 437.150 USB
SO-50 28 Aug 15:59:57 16:04:43 58° 68° (ENE) 16:09:29 436.795 FM
TMSAT-1 28 Aug 16:02:02 16:06:23 26° 77° (ENE) 16:10:42 436.925 FM
ITAMSAT 1 28 Aug 16:07:01 16:12:10 63° 257° (WSW) 16:17:16 435.822 SSB
Oscar 16 28 Aug 16:17:28 16:20:30 16° 257° (WSW) 16:23:32 437.025 USB, Beacon 2401.1428
Uribyol 2 28 Aug 16:17:59 16:22:51 42° 257° (WSW) 16:27:42 436.500 FM
JAS-1B 28 Aug 16:28:10 16:37:34 64° 256° (WSW) 16:47:18 435.800 - 435.900 CW/SSB
AO-Echo 28 Aug 16:31:18 16:35:43 27° 257° (WSW) 16:40:03 ?
AO-27 28 Aug 16:36:02 16:40:24 28° 257° (WSW) 16:44:45 436.795 MHz FM
Sapphire 28 Aug 16:43:06 16:47:01 20° 110° (ESE) 16:50:56 437.095 MHz 1200 baud AX-25 AFSK
Gurwin Techsat 1B 28 Aug 16:47:29 16:52:42 58° 258° (WSW) 16:57:54 435.225 FM
PCSat 28 Aug 17:11:35 17:16:47 49° 109° (ESE) 17:21:58 145.825 MHz
OPAL 28 Aug 17:15:32 17:19:14 20° 104° (ESE) 17:22:55 ?
Uosat F 28 Aug 17:19:32 17:23:45 27° 77° (ENE) 17:27:55 435.120 FM
TMSAT-1 28 Aug 17:42:15 17:46:01 20° 257° (WSW) 17:49:47 436.925 FM
AO-7 28 Aug 17:48:19 17:56:38 69° 74° (ENE) 18:04:53 29.400 - 29.500 MHz
UOSAT-12 28 Aug 18:15:11 18:19:44 65° 248° (WSW) 18:24:12 437.025 FM, 437.400 FM
JAS-2 28 Aug 18:18:15 18:19:52 11° 79° (E) 18:21:27 435.800 - 435.900 CW/SSB, 435.910 FM
Sapphire 28 Aug 18:25:45 18:30:10 26° 289° (WNW) 18:34:36 437.095 MHz 1200 baud AX-25 AFSK
Hamsat 28 Aug 18:39:26 18:41:01 12° 78° (ENE) 18:42:36 145.90 MHz
OPAL 28 Aug 18:53:36 18:57:50 26° 284° (WNW) 19:02:03 ?
Uosat F 28 Aug 18:59:00 19:02:15 17° 257° (WSW) 19:05:30 435.120 FM
PCSat 28 Aug 18:59:30 18:59:57 10° 290° (WNW) 19:00:24 145.825 MHz
RS-15 28 Aug 19:14:06 19:24:28 39° 70° (ENE) 19:35:11 29.354 - 29.394 USB, Beacon 29.352 USB
AO-7 28 Aug 19:44:51 19:48:57 15° 253° (WSW) 19:53:03 29.400 - 29.500 MHz
JAS-2 28 Aug 19:57:35 20:04:53 68° 257° (WSW) 20:11:21 435.800 - 435.900 CW/SSB, 435.910 FM
Hamsat 28 Aug 20:13:10 20:16:42 26° 259° (WSW) 20:20:16 145.90 MHz
